Weather History for Baltimore Martin, MD

Change the Weather History Date:

Wednesday, February 27, 2013

  Actual Average Record
Temperature  
Mean Temperature 48 °F -  
Max Temperature 55 °F 44 °F 73 °F (1997)
Min Temperature 42 °F 31 °F 21 °F (2006)
Degree Days  
Heating Degree Days 16    
Moisture  
Dew Point 40 °F    
Average Humidity 80    
Maximum Humidity 100    
Minimum Humidity 47    
Precipitation  
Precipitation 0.02 in - - ()
Sea Level Pressure  
Sea Level Pressure 29.62 in    
Wind  
Wind Speed 7 mph (NNW)    
Max Wind Speed 16 mph    
Max Gust Speed 30 mph    
Visibility 6 miles    
Events Rain    
Averages and records for this station are not official NWS values.
T = Trace of Precipitation, MM = Missing Value Source: NWS Daily Summary

Daily Weather History Graph

Daily Weather History Graph

Search for Another Location

Airport:

Trip Planner

Search our weather history database for the weather conditions in past years. The results will help you decide how hot, cold, wet, or windy it might be!

Date:

Astronomy

Feb. 27, 2013 Rise Set
Actual Time 6:40 AM EST 5:56 PM EST
Civil Twilight 6:14 AM EST 6:23 PM EST
Nautical Twilight 5:42 AM EST 6:54 PM EST
Astronomical Twilight 5:11 AM EST 7:25 PM EST
Moon 8:13 PM EST (2/27) 7:16 AM EST (2/27)
Length of Visible Light 12h 09m
Length of Day
11h 15m
Waning Gibbous, 96% of the Moon is Illuminated
Feb 27
Waning Gibbous
Mar 4
Last Quarter
Mar 11
New
Mar 19
First Quarter
Mar 27
Full

Hourly Weather History & Observations

Time (EST) Temp. Windchill Dew Point Humidity Pressure Visibility Wind Dir Wind Speed Gust Speed Precip Events Conditions
12:09 AM 42.8 °F 37.5 °F 41.0 °F 93% 29.66 in 3.0 mi NE 9.2 mph - 0.01 in Rain Light Rain
12:27 AM 42.8 °F 37.5 °F 42.8 °F 100% 29.65 in 3.0 mi NNE 9.2 mph 17.3 mph 0.02 in Rain Light Rain
12:48 AM 42.8 °F 35.8 °F 42.8 °F 100% 29.63 in 3.0 mi NE 13.8 mph 23.0 mph 0.03 in Rain Rain
1:09 AM 42.8 °F 39.3 °F 42.8 °F 100% 29.62 in 3.0 mi NE 5.8 mph 17.3 mph N/A   Drizzle
1:27 AM 42.8 °F 36.6 °F 42.8 °F 100% 29.61 in 3.0 mi NNE 11.5 mph 23.0 mph 0.01 in   Drizzle
1:48 AM 44.6 °F 43.1 °F 42.8 °F 93% 29.63 in 4.0 mi North 3.5 mph - 0.01 in   Drizzle
2:09 AM 44.6 °F 42.2 °F 42.8 °F 93% 29.63 in 3.0 mi NNE 4.6 mph - N/A   Drizzle
2:27 AM 44.6 °F 40.2 °F 42.8 °F 93% 29.63 in 4.0 mi NNE 8.1 mph - N/A   Light Drizzle
2:48 AM 44.6 °F 40.2 °F 42.8 °F 93% 29.59 in 5.0 mi NNE 8.1 mph - N/A   Overcast
3:09 AM 44.6 °F 42.2 °F 42.8 °F 93% 29.59 in 7.0 mi NE 4.6 mph - 0.01 in   Overcast
3:27 AM 44.6 °F 40.7 °F 42.8 °F 93% 29.58 in 7.0 mi NE 6.9 mph - 0.01 in   Overcast
3:48 AM 44.6 °F 41.4 °F 44.6 °F 100% 29.55 in 4.0 mi NE 5.8 mph - 0.01 in   Overcast
4:09 AM 44.6 °F 40.7 °F 44.6 °F 100% 29.56 in 3.0 mi NE 6.9 mph - N/A   Overcast
4:27 AM 44.6 °F - 44.6 °F 100% 29.57 in 3.0 mi Calm Calm - N/A   Overcast
4:48 AM 44.6 °F - 44.6 °F 100% 29.58 in 2.5 mi Calm Calm - N/A   Drizzle
5:09 AM 44.6 °F 42.2 °F 44.6 °F 100% 29.53 in 2.5 mi NNW 4.6 mph - N/A   Drizzle
5:27 AM 44.6 °F - 44.6 °F 100% 29.54 in 4.0 mi Calm Calm - N/A   Light Drizzle
5:33 AM 44.6 °F - 44.6 °F 100% 29.54 in 4.0 mi Calm Calm - N/A   Overcast
6:45 AM 46.4 °F 45.2 °F 46.4 °F 100% 29.55 in 2.5 mi West 3.5 mph - N/A   Overcast
7:45 AM 46.4 °F 42.4 °F 46.4 °F 100% 29.59 in 1.5 mi West 8.1 mph - N/A Rain Light Rain
8:45 AM 44.6 °F 39.2 °F 44.6 °F 100% 29.59 in 7.0 mi West 10.4 mph - N/A   Mostly Cloudy
10:50 AM 50.0 °F - 41.0 °F 71% 29.63 in 10.0 mi West 13.8 mph 23.0 mph N/A   Scattered Clouds
11:45 AM 53.6 °F - 41.0 °F 62% 29.63 in 10.0 mi West 16.1 mph 29.9 mph N/A   Scattered Clouds
12:50 PM 55.4 °F - 41.0 °F 58% 29.63 in 10.0 mi West 13.8 mph 26.5 mph N/A   Scattered Clouds
1:45 PM 55.4 °F - 37.4 °F 51% 29.63 in 10.0 mi West 13.8 mph 24.2 mph N/A   Scattered Clouds
2:45 PM 55.4 °F - 35.6 °F 47% 29.64 in 10.0 mi WSW 11.5 mph 21.9 mph N/A   Mostly Cloudy
3:45 PM 55.4 °F - 35.6 °F 47% 29.63 in 10.0 mi WSW 11.5 mph - N/A   Mostly Cloudy
5:45 PM 50.0 °F - 35.6 °F 58% 29.67 in 10.0 mi West 12.7 mph 18.4 mph N/A   Mostly Cloudy
6:45 PM 50.0 °F - 35.6 °F 58% 29.69 in 10.0 mi WNW 9.2 mph - N/A   Mostly Cloudy
7:45 PM 50.0 °F - 32.0 °F 50% 29.70 in 10.0 mi West 5.8 mph - N/A   Mostly Cloudy
8:55 PM 50.0 °F - 32.0 °F 50% 29.70 in 10.0 mi West 3.5 mph - N/A   Mostly Cloudy
9:45 PM 50.0 °F - 32.0 °F 50% 29.70 in 10.0 mi Calm Calm - N/A   Mostly Cloudy
10:09 PM 50.0 °F - 32.0 °F 50% 29.69 in 10.0 mi Calm Calm - N/A   Mostly Cloudy
10:30 PM 50.0 °F - 32.0 °F 50% 29.68 in 10.0 mi Calm Calm - N/A   Mostly Cloudy
10:51 PM 48.2 °F - 32.0 °F 54% 29.68 in 10.0 mi Calm Calm - N/A   Overcast
11:51 PM 44.6 °F - 33.8 °F 66% 29.67 in 10.0 mi Calm Calm - N/A   Scattered Clouds